^^

..:: Storico WU ::..




Lo storico viene creato da WUnderground con i dati che la stazione Meteomincio invia al loro server. L' aggiornamento viene fatto ogni 5 minuti circa, tuttavia possono esserci intervalli pi¨ ampi a causa di errori, interruzioni di servizio o problemi nell' invio tramite FTP.


Storico stazione MeteoMincio
Giorno Sommario per Maggio 27, 2022 Unità:  Inglese    Metrico   Entrambi
Giorno Settimana Mese Anno
  Max: Min: Media:
Temperatura: 87.6 °F 67.1 °F 77.2 °F
Dew Point: 71.4 °F 64.6 °F 67.5 °F
Umidità: 92% 49.6% 74%
Velocità vento: 7mph 0mph 1.7mph
Raffica: 10.4mph - -
Direzione- - South
Pressione: 30.1 in 29.8 in -
Precipitazioni: 0 in    
 
 
Tabulato Dati per Maggio 27, 2022
Ora Temperatura Dew Point Pressione Direzione Velocità vento Raffica Umidità Intensità pioggia (oraria) Info solare Situazione
00:04 70.9 °F 66.9 °F 30.1 in ENE 1.3 mph 3.5 mph 87% 0 in 0 W/m2
00:09 70.7 °F 66.7 °F 30.1 in ENE 0.8 mph 3.5 mph 87.4% 0 in 0 W/m2
00:14 70.5 °F 66.7 °F 30.1 in ENE 1.1 mph 3 mph 88% 0 in 0 W/m2
00:19 70.3 °F 66.7 °F 30.1 in ENE 2.2 mph 4 mph 88% 0 in 0 W/m2
00:24 70.3 °F 66.6 °F 30.1 in ENE 1.7 mph 3.5 mph 87.8% 0 in 0 W/m2
00:29 70.2 °F 66.6 °F 30.1 in ENE 2.4 mph 4 mph 88% 0 in 0 W/m2
00:34 70 °F 66 °F 30.1 in NE 2.7 mph 4 mph 87% 0 in 0 W/m2
00:39 70.2 °F 65.8 °F 30.1 in NE 3 mph 4 mph 86.3% 0 in 0 W/m2
00:44 70.2 °F 65.8 °F 30.1 in ENE 2.4 mph 4 mph 86% 0 in 0 W/m2
00:49 70.2 °F 65.8 °F 30.1 in ENE 3.2 mph 5 mph 86.1% 0 in 0 W/m2
00:54 70 °F 65.7 °F 30.1 in East 2.6 mph 5 mph 86.3% 0 in 0 W/m2
00:59 70 °F 65.5 °F 30.1 in East 2.4 mph 5 mph 86% 0 in 0 W/m2
01:04 69.8 °F 65.5 °F 30.1 in ENE 2.5 mph 5 mph 86% 0 in 0 W/m2
01:09 69.8 °F 65.5 °F 30.1 in East 2.5 mph 5 mph 86% 0 in 0 W/m2
01:14 69.6 °F 65.3 °F 30.1 in East 2.2 mph 5 mph 86% 0 in 0 W/m2
01:19 69.6 °F 65.1 °F 30.1 in East 2.1 mph 5 mph 86% 0 in 0 W/m2
01:24 69.4 °F 65.1 °F 30.1 in East 1.6 mph 3.5 mph 86% 0 in 0 W/m2
01:29 69.4 °F 65.3 °F 30.1 in ENE 1.7 mph 3.5 mph 86.3% 0 in 0 W/m2
01:34 69.4 °F 65.1 °F 30.1 in ENE 1.9 mph 3.5 mph 86.2% 0 in 0 W/m2
01:39 69.3 °F 65.3 °F 30.1 in ENE 2.1 mph 3.5 mph 87% 0 in 0 W/m2
01:44 69.4 °F 65.1 °F 30.1 in ENE 2.3 mph 3.5 mph 86.4% 0 in 0 W/m2
01:49 69.6 °F 65.1 °F 30.1 in ENE 2.4 mph 3.5 mph 86% 0 in 0 W/m2
01:54 69.6 °F 65.1 °F 30.1 in ENE 2.2 mph 3.5 mph 86% 0 in 0 W/m2
01:59 69.4 °F 65.1 °F 30.1 in East 1.8 mph 3.5 mph 86% 0 in 0 W/m2
02:04 69.4 °F 65.1 °F 30.1 in ENE 1.9 mph 3.5 mph 86% 0 in 0 W/m2
02:09 69.4 °F 64.9 °F 30.1 in ENE 2.1 mph 3.5 mph 86% 0 in 0 W/m2
02:14 69.3 °F 64.8 °F 30.1 in ENE 2.1 mph 4 mph 86% 0 in 0 W/m2
02:19 69.3 °F 64.8 °F 30.1 in ENE 2.7 mph 4 mph 86% 0 in 0 W/m2
02:24 69.3 °F 64.8 °F 30.1 in ENE 2.5 mph 4 mph 86% 0 in 0 W/m2
02:29 69.1 °F 64.8 °F 30.1 in ENE 2.2 mph 3.5 mph 86% 0 in 0 W/m2
02:34 69.1 °F 64.6 °F 30.1 in East 1.9 mph 3.5 mph 86% 0 in 0 W/m2
02:39 69.1 °F 64.8 °F 30.1 in East 1.6 mph 3.5 mph 86% 0 in 0 W/m2
02:44 69.1 °F 64.9 °F 30.1 in East 0.9 mph 3 mph 86.5% 0 in 0 W/m2
02:49 69.1 °F 64.9 °F 30.1 in East 0.1 mph 2 mph 87% 0 in 0 W/m2
02:54 69.1 °F 65.1 °F 30.1 in East 0.1 mph 1.2 mph 87% 0 in 0 W/m2
02:59 69.1 °F 65.1 °F 30.1 in East 0.5 mph 2 mph 87% 0 in 0 W/m2
03:04 69.1 °F 64.9 °F 30.1 in East 0.5 mph 2.3 mph 86.7% 0 in 0 W/m2
03:09 69.1 °F 65.1 °F 30.1 in NNE 0.7 mph 3.5 mph 87% 0 in 0 W/m2
03:14 68.9 °F 64.9 °F 30.1 in NNE 1.6 mph 3.5 mph 87% 0 in 0 W/m2
03:19 69.1 °F 64.9 °F 30.1 in NE 0.9 mph 3 mph 87% 0 in 0 W/m2
03:24 68.9 °F 64.9 °F 30.1 in NE 0.9 mph 2.3 mph 87% 0 in 0 W/m2
03:29 68.7 °F 64.9 °F 30.1 in NE 0.3 mph 2 mph 87.5% 0 in 0 W/m2
03:34 68.5 °F 64.8 °F 30.1 in NNE 0.5 mph 2.3 mph 87.7% 0 in 0 W/m2
03:39 68.5 °F 64.8 °F 30.1 in North 1.4 mph 3.5 mph 88% 0 in 0 W/m2
03:44 68.7 °F 64.9 °F 30.1 in North 1.4 mph 3.5 mph 88% 0 in 0 W/m2
03:49 68.5 °F 64.9 °F 30.1 in North 1.1 mph 2.3 mph 88% 0 in 0 W/m2
03:54 68.5 °F 64.9 °F 30.1 in NNE 1.6 mph 4 mph 88% 0 in 0 W/m2
03:59 68.5 °F 64.9 °F 30.1 in NE 2.5 mph 4 mph 88.5% 0 in 0 W/m2
04:04 68.5 °F 65.1 °F 30.1 in ENE 1.9 mph 4 mph 88.7% 0 in 0 W/m2
04:09 68.2 °F 64.8 °F 30.1 in East 1.6 mph 3.5 mph 88.7% 0 in 0 W/m2
04:14 67.8 °F 64.6 °F 30.1 in ENE 2 mph 3.5 mph 89.6% 0 in 0 W/m2
04:19 67.8 °F 64.8 °F 30.1 in NE 0.9 mph 3.5 mph 90% 0 in 0 W/m2
04:24 67.8 °F 64.8 °F 30.1 in NE 0.6 mph 3 mph 90% 0 in 0 W/m2
04:29 68.2 °F 65.1 °F 30.1 in NNE 1.1 mph 2.3 mph 90% 0 in 0 W/m2
04:34 68.4 °F 65.1 °F 30.1 in NE 0.2 mph 2.3 mph 89.4% 0 in 0 W/m2
04:39 68.5 °F 65.1 °F 30.1 in NE 0.3 mph 1.2 mph 89% 0 in 0 W/m2
04:44 68.5 °F 65.1 °F 30.1 in NNW 0.7 mph 1.2 mph 89% 0 in 0 W/m2
04:49 68.5 °F 65.3 °F 30.1 in NW 0.6 mph 2.3 mph 89.3% 0 in 0 W/m2
04:54 68.4 °F 65.3 °F 30.1 in NW 0.4 mph 2.3 mph 90% 0 in 0 W/m2
04:59 68.2 °F 65.1 °F 30.1 in Calm   2 mph 90% 0 in 0 W/m2
05:04 68.2 °F 65.1 °F 30.1 in Calm     90% 0 in 0 W/m2
05:09 68.2 °F 65.1 °F 30.1 in Calm     90% 0 in 0 W/m2
05:14 68.2 °F 65.1 °F 30.1 in Calm     90% 0 in 0 W/m2
05:19 68.2 °F 65.1 °F 30.1 in SW 0.1 mph 3 mph 90% 0 in 0 W/m2
05:24 67.8 °F 64.9 °F 30.1 in SSW 1.4 mph 3.5 mph 90% 0 in 0 W/m2
05:29 67.6 °F 64.8 °F 30.1 in SSW 0.6 mph 2.3 mph 90.7% 0 in 0 W/m2
05:34 67.5 °F 64.8 °F 30.1 in Calm   2 mph 91% 0 in 0 W/m2
05:39 67.3 °F 64.6 °F 30 in Calm     91% 0 in 0 W/m2
05:44 67.3 °F 64.6 °F 30 in Calm     91% 0 in 5 W/m2
05:49 67.3 °F 64.8 °F 30 in Calm     91.7% 0 in 7 W/m2
05:54 67.3 °F 64.8 °F 30 in Calm     91.4% 0 in 9 W/m2
05:59 67.1 °F 64.8 °F 30 in Calm     92% 0 in 11 W/m2
06:04 67.1 °F 64.8 °F 30 in SW 0.1 mph 1.2 mph 92% 0 in 14 W/m2
06:09 67.1 °F 64.8 °F 30 in WNW 0.4 mph 2.3 mph 92% 0 in 18 W/m2
06:14 67.3 °F 64.9 °F 30 in NW 1 mph 3 mph 92% 0 in 21 W/m2
06:19 67.3 °F 64.9 °F 30 in NNW 1.6 mph 3.5 mph 92% 0 in 26 W/m2
06:24 67.5 °F 64.9 °F 30 in NNW 0.9 mph 3.5 mph 92% 0 in 30 W/m2
06:29 67.5 °F 65.1 °F 30.1 in NNW 0.1 mph 3 mph 92% 0 in 37 W/m2
06:34 67.5 °F 65.1 °F 30.1 in NNW 0.2 mph 1.2 mph 92% 0 in 42 W/m2
06:39 67.8 °F 65.3 °F 30.1 in Calm   1 mph 92% 0 in 51 W/m2
06:44 67.8 °F 65.5 °F 30.1 in NNW 0.1 mph 1.2 mph 92% 0 in 58 W/m2
06:49 67.8 °F 65.3 °F 30.1 in NNE 0.7 mph 2.3 mph 91.8% 0 in 63 W/m2
06:54 67.8 °F 65.3 °F 30.1 in NNE 1.3 mph 2.3 mph 92% 0 in 76 W/m2
06:59 68 °F 65.3 °F 30.1 in NNE 0.5 mph 2.3 mph 91.5% 0 in 81 W/m2
07:04 68.4 °F 65.7 °F 30.1 in Calm   2 mph 91% 0 in 86 W/m2
07:09 68.5 °F 65.8 °F 30.1 in NNE 0.1 mph 1 mph 91% 0 in 97 W/m2
07:14 68.7 °F 65.8 °F 30.1 in NE 0.6 mph 2.3 mph 90.4% 0 in 97 W/m2
07:19 68.9 °F 65.8 °F 30.1 in ENE 1.1 mph 2.3 mph 90% 0 in 123 W/m2
07:24 69.1 °F 66 °F 30.1 in ENE 0.7 mph 2 mph 90% 0 in 123 W/m2
07:29 69.1 °F 66 °F 30.1 in South 1.1 mph 3.5 mph 90% 0 in 146 W/m2
07:34 69.1 °F 65.8 °F 30.1 in South 0.4 mph 3 mph 89.5% 0 in 130 W/m2
07:39 69.3 °F 65.8 °F 30.1 in South 0.1 mph 2 mph 89% 0 in 83 W/m2
07:44 69.6 °F 66.2 °F 30.1 in Calm   1 mph 89% 0 in 98 W/m2
07:49 69.8 °F 66.4 °F 30.1 in Calm     89% 0 in 135 W/m2
07:54 70 °F 66.6 °F 30.1 in SE 0.2 mph 1.2 mph 88.7% 0 in 209 W/m2
07:59 70.5 °F 66.6 °F 30.1 in SE 0.4 mph 1.2 mph 87.2% 0 in 234 W/m2
08:04 71.1 °F 66.9 °F 30.1 in NE 0.4 mph 2.3 mph 86.4% 0 in 253 W/m2
08:09 71.4 °F 66.9 °F 30.1 in NE 0.1 mph 2.3 mph 85.7% 0 in 272 W/m2
08:14 71.8 °F 66.9 °F 30.1 in East 0.1 mph 3 mph 85% 0 in 292 W/m2
08:19 72.3 °F 67.3 °F 30.1 in East 1 mph 3.5 mph 84.5% 0 in 311 W/m2
08:24 72.7 °F 67.6 °F 30.1 in SE 1.2 mph 3 mph 84% 0 in 311 W/m2
08:29 72.7 °F 67.6 °F 30.1 in SSE 1.9 mph 3.5 mph 84.2% 0 in 244 W/m2
08:34 72.9 °F 68 °F 30.1 in SSE 1.6 mph 3.5 mph 84.8% 0 in 299 W/m2
08:39 73 °F 68.2 °F 30.1 in SE 0.8 mph 3 mph 85% 0 in 353 W/m2
08:44 73.4 °F 68.4 °F 30.1 in SW 0.6 mph 2.3 mph 84.6% 0 in 357 W/m2
08:49 73.9 °F 68.4 °F 30.1 in SSW 1.3 mph 4.6 mph 83% 0 in 374 W/m2
08:54 74.1 °F 68.7 °F 30.1 in SSW 1.4 mph 5 mph 83% 0 in 381 W/m2
08:59 74.7 °F 69.1 °F 30.1 in SW 2.5 mph 5 mph 82.6% 0 in 410 W/m2
09:04 74.8 °F 69.1 °F 30.1 in SW 2.1 mph 5 mph 82.3% 0 in 406 W/m2
09:09 75 °F 69.3 °F 30.1 in SW 2.1 mph 4 mph 82.5% 0 in 424 W/m2
09:14 75.2 °F 69.3 °F 30.1 in WSW 1.4 mph 4 mph 82% 0 in 432 W/m2
09:19 75.6 °F 69.1 °F 30.1 in WSW 0.6 mph 2.3 mph 80.1% 0 in 432 W/m2
09:24 75.9 °F 69.1 °F 30.1 in West 0.7 mph 2.3 mph 79.4% 0 in 434 W/m2
09:29 76.3 °F 69.4 °F 30.1 in West 1.6 mph 4 mph 79.2% 0 in 471 W/m2
09:34 76.3 °F 69.6 °F 30.1 in West 2 mph 4 mph 80% 0 in 490 W/m2
09:39 76.6 °F 69.4 °F 30.1 in WNW 1.8 mph 4 mph 78.7% 0 in 534 W/m2
09:44 76.8 °F 69.8 °F 30.1 in WSW 1.5 mph 4 mph 79% 0 in 529 W/m2
09:49 77.2 °F 70 °F 30.1 in WNW 2.7 mph 4 mph 78.5% 0 in 529 W/m2
09:54 77.7 °F 70.2 °F 30.1 in NW 1.8 mph 4 mph 77.7% 0 in 642 W/m2
09:59 77.9 °F 70.3 °F 30.1 in SW 0.6 mph 3 mph 77.7% 0 in 642 W/m2
10:04 78.1 °F 70 °F 30.1 in NNW 1.7 mph 4 mph 76% 0 in 450 W/m2
10:09 78.4 °F 69.6 °F 30.1 in WNW 2.7 mph 5 mph 74.4% 0 in 645 W/m2
10:14 78.6 °F 69.6 °F 30.1 in WNW 3 mph 5 mph 73.9% 0 in 643 W/m2
10:19 78.8 °F 70.5 °F 30.1 in NW 2.8 mph 6 mph 75.8% 0 in 643 W/m2
10:24 79.3 °F 70.3 °F 30.1 in NW 2.8 mph 6 mph 74.1% 0 in 643 W/m2
10:29 79 °F 69.6 °F 30.1 in NW 2.4 mph 6 mph 73.2% 0 in 487 W/m2
10:34 78.6 °F 69.8 °F 30.1 in NNW 3 mph 6 mph 74.4% 0 in 527 W/m2
10:39 79.2 °F 70.3 °F 30.1 in North 3.3 mph 6 mph 74.6% 0 in 520 W/m2
10:44 79.3 °F 70 °F 30.1 in NNW 3 mph 6 mph 73.3% 0 in 519 W/m2
10:49 79.3 °F 70 °F 30.1 in NW 2.9 mph 6 mph 73.2% 0 in 519 W/m2
10:54 79.2 °F 68.9 °F 30.1 in WNW 3.4 mph 6 mph 71.1% 0 in 708 W/m2
10:59 79.2 °F 68.4 °F 30.1 in WNW 2.8 mph 6 mph 69.6% 0 in 499 W/m2
11:04 78.8 °F 69.3 °F 30.1 in NW 3.2 mph 5 mph 72.7% 0 in 341 W/m2
11:09 78.8 °F 69.3 °F 30.1 in WNW 3.1 mph 4.6 mph 72.8% 0 in 306 W/m2
11:14 78.4 °F 68.7 °F 30 in WNW 2.3 mph 5 mph 72.2% 0 in 308 W/m2
11:19 78.3 °F 68.9 °F 30 in West 1.7 mph 4 mph 73.4% 0 in 308 W/m2
11:24 78.3 °F 68.7 °F 30 in WNW 2.2 mph 4 mph 72.8% 0 in 316 W/m2
11:29 78.4 °F 69.1 °F 30 in NNE 1.6 mph 3.5 mph 72.9% 0 in 352 W/m2
11:34 78.8 °F 69.3 °F 30 in NNW 1.9 mph 4 mph 72.6% 0 in 364 W/m2
11:39 78.8 °F 69.1 °F 30 in WNW 2.3 mph 4 mph 72.2% 0 in 436 W/m2
11:44 79.3 °F 69.1 °F 30 in WNW 2.9 mph 4 mph 71.3% 0 in 689 W/m2
11:49 79.7 °F 69.3 °F 30 in West 3 mph 4 mph 70.3% 0 in 831 W/m2
11:54 80.1 °F 69.3 °F 30 in SSW 2.4 mph 4 mph 69.7% 0 in 826 W/m2
11:59 80.1 °F 69.4 °F 30 in East 1.7 mph 4 mph 70.1% 0 in 823 W/m2
12:04 81 °F 69.4 °F 30 in East 1.9 mph 6 mph 67.9% 0 in 823 W/m2
12:09 80.8 °F 69.3 °F 30 in SSW 2.9 mph 7 mph 68.1% 0 in 831 W/m2
12:14 81 °F 69.6 °F 30 in WNW 1.9 mph 7 mph 68.4% 0 in 831 W/m2
12:19 81.5 °F 69.8 °F 30 in South 1.7 mph 5 mph 67.8% 0 in 830 W/m2
12:24 81.9 °F 70 °F 30 in SSE 2.5 mph 5 mph 67.3% 0 in 838 W/m2
12:29 82.2 °F 70 °F 30 in SSW 2.3 mph 5 mph 66.6% 0 in 837 W/m2
12:34 82.2 °F 69.3 °F 30 in ESE 3.3 mph 7 mph 64.9% 0 in 844 W/m2
12:39 82.2 °F 68.9 °F 30 in WSW 3.4 mph 7 mph 64.3% 0 in 851 W/m2
12:44 82.9 °F 69.4 °F 30 in WSW 1.9 mph 5 mph 63.8% 0 in 853 W/m2
12:49 83.5 °F 69.1 °F 30 in ESE 2.7 mph 5 mph 62.2% 0 in 854 W/m2
12:54 83.3 °F 69.6 °F 30 in East 1.6 mph 5 mph 63.5% 0 in 863 W/m2
12:59 83.8 °F 69.8 °F 30 in South 2.1 mph 5 mph 62.8% 0 in 877 W/m2
13:04 83.1 °F 68.7 °F 30 in SE 2.5 mph 4 mph 62% 0 in 861 W/m2
13:09 82.9 °F 68.4 °F 30 in SSE 2.2 mph 4 mph 61.6% 0 in 858 W/m2
13:14 83.3 °F 69.1 °F 30 in North 1.6 mph 4 mph 62.7% 0 in 865 W/m2
13:19 84.2 °F 70 °F 30 in ESE 2.5 mph 5 mph 62.5% 0 in 865 W/m2
13:24 83.8 °F 68.9 °F 30 in ESE 2.4 mph 5 mph 60.8% 0 in 803 W/m2
13:29 84 °F 69.3 °F 30 in West 2.9 mph 7 mph 61.5% 0 in 791 W/m2
13:34 83.8 °F 69.3 °F 30 in WNW 4.2 mph 7 mph 61.7% 0 in 747 W/m2
13:39 83.8 °F 68.9 °F 30 in WNW 5 mph 8.1 mph 60.9% 0 in 800 W/m2
13:44 83.8 °F 68.9 °F 30 in WNW 5.1 mph 8 mph 60.6% 0 in 788 W/m2
13:49 84.2 °F 69.1 °F 30 in West 3 mph 7 mph 60.7% 0 in 728 W/m2
13:54 83.8 °F 69.4 °F 30 in WSW 2.7 mph 6 mph 62.1% 0 in 729 W/m2
13:59 84 °F 69.3 °F 30 in SW 2.8 mph 6 mph 61.3% 0 in 686 W/m2
14:04 84.4 °F 69.8 °F 30 in WNW 1.7 mph 6 mph 61.6% 0 in 700 W/m2
14:09 85.3 °F 71.1 °F 30 in NNW 2.8 mph 6 mph 62.4% 0 in 726 W/m2
14:14 85.6 °F 69.8 °F 30 in NW 2.7 mph 5 mph 59.6% 0 in 722 W/m2
14:19 85.3 °F 69.8 °F 30 in NW 2.5 mph 6 mph 59.8% 0 in 705 W/m2
14:24 85.6 °F 69.4 °F 30 in NW 3.4 mph 6 mph 58.5% 0 in 721 W/m2
14:29 84.9 °F 69.3 °F 30 in WNW 1.8 mph 6 mph 59.6% 0 in 722 W/m2
14:34 84.9 °F 69.4 °F 30 in WSW 2.3 mph 5 mph 59.8% 0 in 738 W/m2
14:39 84.7 °F 69.4 °F 30 in WSW 2.8 mph 5 mph 60.2% 0 in 766 W/m2
14:44 85.3 °F 70 °F 30 in West 2.4 mph 4 mph 60.2% 0 in 761 W/m2
14:49 84.9 °F 69.6 °F 30 in South 1.8 mph 4 mph 60.4% 0 in 738 W/m2
14:54 85.3 °F 70 °F 30 in SSE 1.9 mph 4 mph 60.1% 0 in 777 W/m2
14:59 86.4 °F 71.4 °F 30 in NNW 1.7 mph 4 mph 61.2% 0 in 784 W/m2
15:04 87.1 °F 70 °F 30 in SW 3.3 mph 7 mph 57.1% 0 in 786 W/m2
15:09 86.4 °F 68.7 °F 29.9 in SW 3.4 mph 8 mph 55.9% 0 in 777 W/m2
15:14 86.5 °F 69.6 °F 29.9 in West 5.2 mph 8.1 mph 57.3% 0 in 770 W/m2
15:19 86.7 °F 69.1 °F 29.9 in West 7 mph 10.4 mph 55.8% 0 in 738 W/m2
15:24 86 °F 68.9 °F 29.9 in SW 3.5 mph 10 mph 56.8% 0 in 705 W/m2
15:29 86.4 °F 68.4 °F 29.9 in WSW 3.4 mph 8.1 mph 55.3% 0 in 744 W/m2
15:34 86.4 °F 68.9 °F 29.9 in WSW 4.5 mph 8 mph 56.1% 0 in 719 W/m2
15:39 86.4 °F 69.3 °F 29.9 in WSW 4.7 mph 7 mph 56.8% 0 in 707 W/m2
15:44 86.2 °F 68.5 °F 29.9 in WSW 5.2 mph 7 mph 55.7% 0 in 666 W/m2
15:49 86.5 °F 68 °F 29.9 in WSW 4.2 mph 7 mph 54.1% 0 in 633 W/m2
15:54 86.7 °F 68.4 °F 29.9 in West 2.4 mph 7 mph 54.8% 0 in 606 W/m2
15:59 86.5 °F 68.2 °F 29.9 in SW 2.8 mph 6 mph 54.4% 0 in 603 W/m2
16:04 87.1 °F 68 °F 29.9 in SW 2.6 mph 4 mph 53.3% 0 in 596 W/m2
16:09 86.7 °F 68.2 °F 29.9 in SW 2.6 mph 5 mph 54.2% 0 in 594 W/m2
16:14 86.9 °F 68.5 °F 29.9 in WSW 3.3 mph 5 mph 54.5% 0 in 599 W/m2
16:19 86.9 °F 68.4 °F 29.9 in SW 3 mph 5 mph 54.2% 0 in 606 W/m2
16:24 86.9 °F 68.2 °F 29.9 in SSW 1.7 mph 5 mph 54.1% 0 in 585 W/m2
16:29 86.9 °F 67.6 °F 29.9 in SSW 2.1 mph 8 mph 52.8% 0 in 568 W/m2
16:34 87.1 °F 67.6 °F 29.9 in SW 3.2 mph 8.1 mph 52.8% 0 in 550 W/m2
16:39 87.1 °F 67.6 °F 29.9 in West 2.5 mph 8.1 mph 52.6% 0 in 533 W/m2
16:44 87.1 °F 67.8 °F 29.9 in West 4.3 mph 8.1 mph 52.9% 0 in 506 W/m2
16:49 87.1 °F 68.2 °F 29.9 in West 2.9 mph 8 mph 53.5% 0 in 478 W/m2
16:54 87.1 °F 67.5 °F 29.9 in SW 3.6 mph 7 mph 52.2% 0 in 462 W/m2
16:59 87.4 °F 66.4 °F 29.9 in SSW 4.7 mph 7 mph 50% 0 in 450 W/m2
17:04 87.6 °F 66.6 °F 29.9 in SW 5.2 mph 8.1 mph 49.9% 0 in 420 W/m2
17:09 87.3 °F 66.6 °F 29.9 in SSW 4.7 mph 8.1 mph 50.5% 0 in 418 W/m2
17:14 86.9 °F 66 °F 29.9 in SSW 4.2 mph 7 mph 50% 0 in 408 W/m2
17:19 86.7 °F 65.8 °F 29.9 in SSW 2 mph 7 mph 50.1% 0 in 401 W/m2
17:24 86.7 °F 66.4 °F 29.9 in SSW 1.4 mph 4 mph 51% 0 in 464 W/m2
17:29 87.3 °F 66.4 °F 29.9 in SW 3.2 mph 6 mph 50% 0 in 475 W/m2
17:34 87.4 °F 66.2 °F 29.9 in SW 3.4 mph 6 mph 49.6% 0 in 473 W/m2
17:39 87.1 °F 66.2 °F 29.9 in SSW 2 mph 6 mph 50% 0 in 464 W/m2
17:44 87.3 °F 66.6 °F 29.9 in SSW 2.1 mph 5 mph 50.2% 0 in 464 W/m2
17:49 87.6 °F 66.7 °F 29.9 in SW 3.5 mph 7 mph 50% 0 in 446 W/m2
17:54 87.4 °F 66.9 °F 29.9 in SW 2.3 mph 7 mph 50.5% 0 in 420 W/m2
17:59 87.6 °F 67.1 °F 29.9 in South 3.1 mph 7 mph 50.6% 0 in 388 W/m2
18:04 87.3 °F 66.6 °F 29.9 in South 2 mph 7 mph 50.2% 0 in 381 W/m2
18:09 87.4 °F 66.7 °F 29.9 in SSW 2.5 mph 6 mph 50.4% 0 in 374 W/m2
18:14 87.4 °F 66.7 °F 29.9 in South 3.2 mph 6 mph 50.6% 0 in 355 W/m2
18:19 87.4 °F 66.9 °F 29.9 in South 3.4 mph 6 mph 50.7% 0 in 336 W/m2
18:24 87.4 °F 67.3 °F 29.9 in SSW 3.5 mph 9 mph 51.1% 0 in 315 W/m2
18:29 87.1 °F 67.3 °F 29.9 in SSW 4.2 mph 9.2 mph 52% 0 in 299 W/m2
18:34 87.1 °F 66.9 °F 29.9 in SSW 4.5 mph 9 mph 51.2% 0 in 281 W/m2
18:39 87.1 °F 66.9 °F 29.9 in South 4.5 mph 7 mph 51.1% 0 in 274 W/m2
18:44 86.9 °F 66.4 °F 29.9 in SSW 5 mph 7 mph 50.6% 0 in 260 W/m2
18:49 86.9 °F 67.1 °F 29.9 in SSW 5 mph 8 mph 51.8% 0 in 248 W/m2
18:54 86.9 °F 66.9 °F 29.9 in SSW 4.2 mph 8 mph 51.4% 0 in 239 W/m2
18:59 87.1 °F 67.3 °F 29.9 in SSW 3.6 mph 7 mph 51.9% 0 in 225 W/m2
19:04 86.5 °F 66.7 °F 29.9 in SSW 4.5 mph 7 mph 51.8% 0 in 209 W/m2
19:09 86.4 °F 66.7 °F 29.9 in SSW 4.5 mph 7 mph 52.1% 0 in 195 W/m2
19:14 86.4 °F 67.5 °F 29.9 in South 4 mph 6 mph 53.5% 0 in 183 W/m2
19:19 86 °F 67.6 °F 29.9 in South 4.3 mph 6 mph 54.4% 0 in 169 W/m2
19:24 85.8 °F 68 °F 29.9 in South 3.2 mph 6 mph 55.4% 0 in 156 W/m2
19:29 85.6 °F 68.2 °F 29.9 in South 2.7 mph 6 mph 56.1% 0 in 142 W/m2
19:34 85.3 °F 68.4 °F 29.9 in South 1.6 mph 5 mph 57% 0 in 123 W/m2
19:39 85.1 °F 68.2 °F 29.9 in South 1.4 mph 4 mph 57.3% 0 in 113 W/m2
19:44 84.7 °F 68.2 °F 29.9 in South 1.6 mph 4 mph 57.8% 0 in 104 W/m2
19:49 84.4 °F 68.4 °F 29.9 in SE 0.8 mph 3 mph 58.8% 0 in 90 W/m2
19:54 84.2 °F 68.7 °F 29.9 in SE 1 mph 2.3 mph 59.9% 0 in 77 W/m2
19:59 83.7 °F 68.4 °F 29.9 in SE 0.9 mph 3.5 mph 60% 0 in 65 W/m2
20:04 83.5 °F 68.4 °F 29.9 in SE 1.1 mph 3 mph 60.8% 0 in 42 W/m2
20:09 83.1 °F 68.4 °F 29.9 in SE 0.9 mph 2.3 mph 61.6% 0 in 37 W/m2
20:14 82.8 °F 68.7 °F 29.9 in SE 1 mph 2.3 mph 62.8% 0 in 33 W/m2
20:19 82.2 °F 68.9 °F 29.9 in ESE 1.1 mph 2.3 mph 64% 0 in 30 W/m2
20:24 82.2 °F 69.1 °F 29.9 in ESE 0.7 mph 2.3 mph 64.7% 0 in 25 W/m2
20:29 82 °F 69.3 °F 29.9 in ESE 0.6 mph 1.2 mph 65.7% 0 in 21 W/m2
20:34 81.7 °F 69.3 °F 29.9 in ESE 0.5 mph 1.2 mph 66.1% 0 in 18 W/m2
20:39 81.3 °F 69.4 °F 29.9 in SE 0.7 mph 2.3 mph 67.4% 0 in 14 W/m2
20:44 80.8 °F 69.3 °F 29.9 in SE 0.9 mph 2.3 mph 68.2% 0 in 11 W/m2
20:49 80.4 °F 69.3 °F 29.9 in SE 0.7 mph 2 mph 69.1% 0 in 7 W/m2
20:54 80.1 °F 69.1 °F 29.9 in SE 0.2 mph 1.2 mph 69.3% 0 in 5 W/m2
20:59 79.9 °F 68.4 °F 29.9 in Calm   1 mph 68% 0 in 0 W/m2
21:04 79.5 °F 68.9 °F 29.9 in SE 0.2 mph 1.2 mph 69.7% 0 in 0 W/m2
21:09 79.2 °F 68.9 °F 29.9 in Calm   1 mph 70.7% 0 in 0 W/m2
21:14 79 °F 68.7 °F 29.9 in Calm     71% 0 in 0 W/m2
21:19 78.8 °F 68.7 °F 29.9 in Calm     71.2% 0 in 0 W/m2
21:24 78.8 °F 68.5 °F 29.9 in Calm     71.2% 0 in 0 W/m2
21:29 78.6 °F 68.4 °F 29.9 in Calm     71% 0 in 0 W/m2
21:34 78.3 °F 68.2 °F 29.9 in Calm     70.9% 0 in 0 W/m2
21:39 77.9 °F 68.2 °F 29.9 in Calm     72.2% 0 in 0 W/m2
21:44 77.7 °F 68.5 °F 29.9 in Calm     73.2% 0 in 0 W/m2
21:49 77.5 °F 68.4 °F 29.9 in Calm     73.4% 0 in 0 W/m2
21:54 77.2 °F 68.2 °F 29.9 in Calm     73.6% 0 in 0 W/m2
21:59 77 °F 68.4 °F 29.9 in Calm     74.5% 0 in 0 W/m2
22:04 76.8 °F 68.2 °F 29.9 in Calm     74.8% 0 in 0 W/m2
22:09 76.5 °F 67.6 °F 29.9 in Calm     74.2% 0 in 0 W/m2
22:14 76.3 °F 67.3 °F 29.9 in Calm     74.1% 0 in 0 W/m2
22:19 75.9 °F 67.3 °F 29.9 in Calm     75% 0 in 0 W/m2
22:24 75.6 °F 67.3 °F 29.9 in Calm     75.6% 0 in 0 W/m2
22:29 75.4 °F 67.3 °F 29.9 in Calm     75.7% 0 in 0 W/m2
22:34 75.6 °F 67.5 °F 29.9 in Calm     76% 0 in 0 W/m2
22:39 75.6 °F 67.5 °F 29.9 in Calm     76% 0 in 0 W/m2
22:44 75.6 °F 67.3 °F 29.9 in Calm     75.3% 0 in 0 W/m2
22:49 75.6 °F 67.3 °F 29.9 in Calm     75.6% 0 in 0 W/m2
22:54 75.4 °F 67.3 °F 29.9 in Calm     76% 0 in 0 W/m2
22:59 75 °F 67.3 °F 29.9 in Calm     76.7% 0 in 0 W/m2
23:04 74.8 °F 67.5 °F 29.8 in Calm     77.8% 0 in 0 W/m2
23:09 75 °F 67.3 °F 29.8 in Calm     76.9% 0 in 0 W/m2
23:14 75.4 °F 67.3 °F 29.8 in Calm     76% 0 in 0 W/m2
23:19 74.8 °F 67.3 °F 29.8 in Calm     77.1% 0 in 0 W/m2
23:24 74.7 °F 67.3 °F 29.8 in Calm     78.1% 0 in 0 W/m2
23:29 74.3 °F 67.5 °F 29.8 in Calm     79% 0 in 0 W/m2
23:34 74.1 °F 67.5 °F 29.8 in Calm     79.8% 0 in 0 W/m2
23:39 73.9 °F 67.3 °F 29.8 in Calm     80% 0 in 0 W/m2
23:44 73.9 °F 67.3 °F 29.8 in Calm     79.8% 0 in 0 W/m2
23:49 73.9 °F 67.5 °F 29.8 in Calm     80% 0 in 0 W/m2
23:54 73.8 °F 67.5 °F 29.8 in Calm     80.9% 0 in 0 W/m2
23:59 73 °F 66.7 °F 29.8 in Calm     80.7% 0 in 0 W/m2
Stazione Meteorologica MeteoMincio Rivalta s/M (MN)
Con i complimenti di Weather Underground - 2 mb


METEO PILLOLE
Il luogo più caldo della Terra
Dallol - Etiopia
La temperatura media dal 1960 al 1966 è stata di 34,5°C.

Do NOT follow this link or you will be banned from the site!